CAPE
0 0 0 0 0 0 0 0 0 0 0 0 0 0 0 0 0 0 0 0 0 0
0 0 0 0 0 0 0 0 0 0 0 0 0 0 0 0 0 0 0 0 0 0
0 0 0 0 0 4 3 1 0 0 0 0 0 0 0 0 0 0 0 0 0 0
4 0 0 0 0 0 2 0 0 0 0 0 0 0 0 0 0 0 0 0 0 0
0 0 0 0 0 0 0 0 0 0 0 0 0 0 0 0 0 0 0 0 0 0
0 0 0 0 0 2 0 0 0 0 0 0 0 0 0 0 0 0 0 0 0 0
6 5 4 0 0 4 0 0 0 0 0 0 0 0 0 0 0 0 0 0 0 0
20 30 3 0 0 4 1 0 0 0 0 0 0 0 0 0 0 0 0 0 0 0
14 8 12 6 1 0 0 0 0 0 0 0 0 0 0 0 0 0 0 2 4 1
11 1 1 5 0 3 3 1 0 0 0 0 1 0 0 0 0 0 0 3 13 12
4 4 9 6 9 7 5 4 5 6 6 6 7 0 0 0 0 0 1 6 13 14
8 6 11 15 14 15 17 14 9 7 6 9 14 4 0 0 0 3 6 11 16 16
11 13 18 22 24 11 8 5 5 9 18 13 7 10 0 0 4 5 5 18 19 10
22 17 17 19 25 9 11 14 10 16 16 29 55 51 1 0 0 2 0 1 2 7
CIN
-0 -0 -0 -0 -0 -0 -0 -0 -0 -0 -0 -0 -0 -0 -0 -0 -0 -0 -0 -0 -0 -0
-0 -0 -0 -0 -0 -0 -0 -0 -0 -0 -0 -0 -0 -0 -0 -0 -0 -0 -0 -0 -0 -0
-0 -0 -0 -0 -0 -1 -1 -0 -0 -0 -0 -0 -0 -0 -0 -0 -0 -0 -0 -0 -0 -0
-1 -1 -0 -0 -0 -0 -1 -0 -0 -0 -0 -0 -0 -0 -0 -0 -0 -0 -0 -0 -0 -0
-0 -0 -0 -0 -0 -0 -0 -0 -0 -0 -0 -0 -0 -0 -0 -0 -0 -0 -0 -0 -0 -0
-0 -0 -0 -0 -0 -1 -0 -0 -0 -0 -0 -0 -0 -0 -0 -0 -0 -0 -0 -0 -0 -0
-1 -1 -1 -0 -0 -1 -0 -0 -0 -0 -0 -0 -0 -0 -0 -0 -0 -0 -0 -0 -0 -0
-3 -1 -1 -0 -0 -1 -0 -0 -0 -0 -0 -0 -0 -0 -0 -0 -0 -0 -0 -0 -0 -0
-5 -5 -2 -1 -0 -0 -0 -0 -0 -0 -0 -0 -0 -0 -0 -0 -0 -0 -0 -2 -1 -1
-1 -4 -1 -0 -0 -1 -0 -0 -0 -0 -0 -0 -0 -0 -0 -0 -0 -0 -0 -0 -1 -1
-1 -1 -1 -1 -0 -1 -1 -1 -1 -1 -1 -1 -1 -0 -0 -0 -0 -0 -0 -1 -2 -2
-1 -3 -2 -1 -2 -1 -1 -1 -1 -0 -0 -1 -1 -7 -0 -0 -0 -1 -1 -1 -1 -3
-1 -2 -2 -2 -1 -1 -0 -0 -1 -2 -1 -2 -1 -4 -0 -0 -1 -2 -2 -1 -1 -2
-1 -1 -1 -1 -1 -2 -2 -2 -3 -2 -3 -2 -2 -1 -2 -0 -0 -1 -1 -1 -2 -1
Wind_Speed
11 11 12 15 12 14 14 14 15 15 14 14 15 16 16 17 17 18 18 20 21 21
13 13 14 14 14 13 13 13 14 14 14 14 15 15 15 17 17 17 19 19 21 23
13 14 14 13 15 13 13 13 14 14 14 14 14 15 15 15 17 18 20 21 22 24
14 15 15 14 13 13 11 12 14 15 15 15 16 16 16 16 17 18 20 21 23 25
16 16 16 15 15 14 14 13 14 13 14 15 14 15 15 16 17 18 20 22 23 25
17 18 18 17 16 16 15 15 13 13 13 14 15 15 16 17 18 20 22 23 25 26
18 17 16 15 14 12 12 12 12 13 13 14 15 14 16 18 20 22 24 25 25 26
14 14 15 13 13 14 14 15 13 12 13 15 16 17 18 21 23 23 24 25 24 26
12 9 9 11 13 13 12 11 12 14 14 15 17 15 18 20 22 23 24 25 26 28
12 15 16 12 11 9 12 13 15 16 14 15 16 15 17 18 21 24 25 26 26 28
9 10 9 9 8 9 13 14 15 15 16 17 17 16 16 17 21 23 24 24 25 27
10 9 8 8 10 12 13 14 15 16 17 18 18 16 15 16 22 24 27 27 27 29
11 11 11 12 14 15 13 15 17 16 16 17 19 20 16 15 23 27 30 28 28 29
10 11 13 16 16 15 13 13 13 15 17 19 20 21 20 19 26 30 29 28 30 28
Wind_Direction
312 317 318 318 322 322 326 334 334 333 339 344 336 336 338 340 340 338 339 335 332 332
312 315 319 318 318 321 331 334 338 336 334 340 341 339 339 338 337 338 333 336 334 330
316 316 317 318 317 323 328 332 332 332 332 331 341 338 337 337 334 336 328 331 330 329
318 317 318 317 319 321 325 328 326 324 322 324 324 329 331 334 337 336 332 330 329 328
315 317 317 315 315 318 317 322 321 322 320 316 321 324 329 333 335 334 333 332 331 331
314 316 315 315 315 315 315 317 325 321 318 316 315 320 323 330 329 329 328 328 329 331
311 315 319 318 316 314 312 309 311 313 321 324 330 333 331 331 331 330 329 329 331 332
311 307 314 320 315 310 309 308 321 326 326 323 322 323 328 327 327 329 328 331 333 332
318 329 331 325 320 321 317 321 325 323 326 324 321 326 329 330 331 331 330 329 329 330
331 314 313 325 329 336 321 318 317 321 327 326 322 325 326 329 328 327 327 326 326 327
345 339 340 344 343 334 324 319 319 320 321 321 322 321 322 326 327 326 326 326 326 326
337 341 350 346 340 330 323 320 317 320 321 321 322 324 322 326 326 326 325 324 323 324
340 336 336 334 327 323 327 324 323 324 325 324 322 322 322 322 326 324 323 325 327 327
348 344 334 325 323 327 331 333 331 327 326 324 325 324 325 324 324 322 322 324 325 327